• In Lithuania
  • List of Countries
  • For 7 days
  • Water Temperature
  • Satellite Maps
  • Weather Map
  • Weather Widgets
  • user-avatar
    Login

    Hourly Weather Ischgl

    Today, 19 December, Tuesday

    Time Temperature Precipitation Wind Pressure Humidity
    00:00 -14°C° 0 mm 1 mps 572 mmHg 94%
    01:00 -14°C° 0 mm 1 mps 572 mmHg 94%
    02:00 -14°C° 0 mm 1 mps 572 mmHg 94%
    03:00 -14°C° 0 mm 1 mps 572 mmHg 94%
    04:00 -15°C° 0 mm 1 mps 572 mmHg 94%
    05:00 -15°C° 0 mm 1 mps 572 mmHg 94%
    06:00 -15°C° 0 mm 1 mps 573 mmHg 93%
    07:00 -15°C° 0 mm 1 mps 573 mmHg 93%
    08:00 -14°C° 0 mm 1 mps 574 mmHg 92%
    09:00 -13°C° 0 mm 1 mps 575 mmHg 90%
    10:00 -12°C° 0 mm 1 mps 575 mmHg 89%
    11:00 -11°C° 0 mm 1 mps 576 mmHg 87%
    12:00 -10°C° 0 mm 1 mps 576 mmHg 85%
    13:00 -9°C° 0 mm 1 mps 577 mmHg 83%
    14:00 -10°C° 0 mm 1 mps 576 mmHg 86%
    15:00 -10°C° 0 mm 1 mps 576 mmHg 89%
    16:00 -11°C° 0 mm 1 mps 575 mmHg 92%
    17:00 -12°C° 0 mm 1 mps 575 mmHg 93%
    18:00 -13°C° 0 mm 1 mps 575 mmHg 93%
    19:00 -14°C° 0 mm 1 mps 575 mmHg 94%
    20:00 -14°C° 0 mm 1 mps 575 mmHg 94%
    21:00 -14°C° 0 mm 1 mps 575 mmHg 94%
    22:00 -16°C° 0 mm 2 mps 575 mmHg 93%
    23:00 -16°C° 0 mm 2 mps 575 mmHg 93%

    Tomorrow, 20 December, Wednesday

    Time Temperature Precipitation Wind Pressure Humidity
    00:00 -16°C° 0 mm 2 mps 575 mmHg 93%
    01:00 -16°C° 0 mm 2 mps 574 mmHg 93%
    02:00 -16°C° 0 mm 2 mps 574 mmHg 93%
    03:00 -16°C° 0 mm 2 mps 574 mmHg 92%
    04:00 -16°C° 0 mm 2 mps 574 mmHg 92%
    05:00 -15°C° 0 mm 2 mps 574 mmHg 92%
    06:00 -15°C° 0 mm 2 mps 575 mmHg 92%
    07:00 -15°C° 0 mm 2 mps 575 mmHg 91%
    08:00 -14°C° 0.1 mm 2 mps 575 mmHg 91%
    09:00 -12°C° 0.1 mm 2 mps 576 mmHg 90%
    10:00 -10°C° 0.1 mm 2 mps 577 mmHg 90%
    11:00 -9°C° 0 mm 2 mps 577 mmHg 89%
    12:00 -8°C° 0 mm 2 mps 577 mmHg 89%
    13:00 -7°C° 0 mm 2 mps 577 mmHg 89%
    14:00 -8°C° 0 mm 2 mps 577 mmHg 90%
    15:00 -9°C° 0 mm 2 mps 577 mmHg 92%
    16:00 -9°C° 0 mm 2 mps 576 mmHg 94%
    17:00 -10°C° 0 mm 2 mps 576 mmHg 94%
    18:00 -12°C° 0 mm 2 mps 576 mmHg 94%
    19:00 -13°C° 0 mm 2 mps 576 mmHg 94%
    20:00 -13°C° 0 mm 2 mps 576 mmHg 94%
    21:00 -13°C° 0 mm 2 mps 576 mmHg 93%
    22:00 -13°C° 0 mm 2 mps 576 mmHg 92%
    23:00 -13°C° 0 mm 2 mps 576 mmHg 92%

    Day after tomorrow, 21 December, Thursday

    Time Temperature Precipitation Wind Pressure Humidity
    00:00 -13°C° 0 mm 2 mps 576 mmHg 91%
    01:00 -13°C° 0 mm 2 mps 576 mmHg 91%
    02:00 -12°C° 0.2 mm 2 mps 576 mmHg 91%
    03:00 -12°C° 0.2 mm 2 mps 577 mmHg 91%
    04:00 -10°C° 0.2 mm 2 mps 577 mmHg 91%
    05:00 -9°C° 0.6 mm 2 mps 577 mmHg 92%
    06:00 -9°C° 0.6 mm 2 mps 578 mmHg 93%
    07:00 -8°C° 0.6 mm 2 mps 578 mmHg 94%
    08:00 -7°C° 0.7 mm 2 mps 579 mmHg 94%
    09:00 -7°C° 0.7 mm 2 mps 579 mmHg 94%
    10:00 -6°C° 0.7 mm 2 mps 579 mmHg 94%
    11:00 -6°C° 0.3 mm 2 mps 579 mmHg 95%
    12:00 -5°C° 0.3 mm 2 mps 579 mmHg 95%
    13:00 -4°C° 0.3 mm 2 mps 579 mmHg 95%
    14:00 -5°C° 0.1 mm 2 mps 579 mmHg 95%
    15:00 -5°C° 0.1 mm 2 mps 579 mmHg 96%
    16:00 -5°C° 0.1 mm 2 mps 579 mmHg 96%
    17:00 -6°C° 0.4 mm 2 mps 579 mmHg 95%
    18:00 -6°C° 0.4 mm 2 mps 579 mmHg 95%
    19:00 -6°C° 0.4 mm 2 mps 579 mmHg 95%
    20:00 -6°C° 0.9 mm 2 mps 579 mmHg 95%
    21:00 -6°C° 0.9 mm 2 mps 579 mmHg 95%
    22:00 -5°C° 0.9 mm 2 mps 579 mmHg 95%
    23:00 -5°C° 1 mm 2 mps 579 mmHg 95%

    22 December, Friday

    Time Temperature Precipitation Wind Pressure Humidity
    00:00 -5°C° 1 mm 2 mps 578 mmHg 95%
    01:00 -5°C° 1 mm 2 mps 578 mmHg 95%
    02:00 -5°C° 1.3 mm 2 mps 578 mmHg 95%
    03:00 -5°C° 1.3 mm 2 mps 578 mmHg 95%
    04:00 -6°C° 1.3 mm 2 mps 578 mmHg 95%
    05:00 -6°C° 1.4 mm 2 mps 578 mmHg 96%
    06:00 -6°C° 1.4 mm 2 mps 578 mmHg 96%
    07:00 -6°C° 1.4 mm 2 mps 578 mmHg 96%
    08:00 -6°C° 0.9 mm 2 mps 578 mmHg 95%
    09:00 -5°C° 0.9 mm 2 mps 578 mmHg 95%
    10:00 -5°C° 0.9 mm 2 mps 579 mmHg 95%
    11:00 -5°C° 0.3 mm 2 mps 579 mmHg 95%
    12:00 -6°C° 0.3 mm 3 mps 579 mmHg 95%
    13:00 -5°C° 0.3 mm 3 mps 578 mmHg 95%
    14:00 -6°C° 0.2 mm 3 mps 578 mmHg 95%
    15:00 -6°C° 0.2 mm 3 mps 578 mmHg 95%
    16:00 -7°C° 0.2 mm 3 mps 577 mmHg 95%
    17:00 -7°C° 0.3 mm 3 mps 577 mmHg 95%
    18:00 -8°C° 0.3 mm 3 mps 577 mmHg 96%
    19:00 -8°C° 0.3 mm 3 mps 577 mmHg 96%
    20:00 -8°C° 0.4 mm 3 mps 577 mmHg 96%
    21:00 -9°C° 0.4 mm 3 mps 577 mmHg 96%
    22:00 -9°C° 0.4 mm 3 mps 577 mmHg 96%
    23:00 -9°C° 0.5 mm 3 mps 576 mmHg 96%

    23 December, Saturday

    Time Temperature Precipitation Wind Pressure Humidity
    00:00 -9°C° 0.5 mm 3 mps 576 mmHg 96%
    01:00 -10°C° 0.5 mm 3 mps 576 mmHg 96%
    02:00 -10°C° 0.8 mm 3 mps 576 mmHg 96%
    03:00 -10°C° 0.8 mm 3 mps 575 mmHg 96%
    04:00 -10°C° 0.8 mm 3 mps 575 mmHg 96%
    05:00 -10°C° 0.6 mm 3 mps 575 mmHg 95%
    06:00 -12°C° 0.6 mm 3 mps 575 mmHg 95%
    07:00 -12°C° 0.6 mm 3 mps 575 mmHg 95%
    08:00 -12°C° 0.4 mm 3 mps 575 mmHg 95%
    09:00 -12°C° 0.4 mm 3 mps 575 mmHg 94%
    10:00 -12°C° 0.4 mm 3 mps 576 mmHg 94%
    11:00 -10°C° 0.2 mm 3 mps 576 mmHg 93%
    12:00 -10°C° 0.2 mm 3 mps 576 mmHg 91%
    13:00 -10°C° 0.2 mm 3 mps 576 mmHg 90%
    14:00 -10°C° 0.1 mm 3 mps 576 mmHg 91%
    15:00 -12°C° 0.1 mm 3 mps 575 mmHg 92%
    16:00 -12°C° 0.1 mm 3 mps 575 mmHg 92%
    17:00 -13°C° 0 mm 3 mps 575 mmHg 93%
    18:00 -14°C° 0 mm 3 mps 575 mmHg 93%
    19:00 -14°C° 0 mm 2 mps 575 mmHg 93%
    20:00 -14°C° 0 mm 2 mps 575 mmHg 91%
    21:00 -15°C° 0 mm 2 mps 575 mmHg 89%
    22:00 -15°C° 0 mm 2 mps 575 mmHg 87%
    23:00 -15°C° 0 mm 2 mps 575 mmHg 84%

    24 December, Sunday

    Time Temperature Precipitation Wind Pressure Humidity
    00:00 -14°C° 0 mm 2 mps 575 mmHg 80%
    01:00 -14°C° 0 mm 2 mps 575 mmHg 77%
    02:00 -14°C° 0 mm 2 mps 575 mmHg 76%
    03:00 -13°C° 0 mm 2 mps 575 mmHg 76%
    04:00 -13°C° 0 mm 2 mps 575 mmHg 75%
    05:00 -13°C° 0 mm 2 mps 575 mmHg 75%
    06:00 -13°C° 0 mm 2 mps 575 mmHg 75%
    07:00 -13°C° 0 mm 2 mps 575 mmHg 75%
    08:00 -10°C° 0 mm 2 mps 576 mmHg 75%
    09:00 -9°C° 0 mm 2 mps 576 mmHg 75%
    10:00 -7°C° 0 mm 1 mps 577 mmHg 74%
    11:00 -4°C° 0 mm 1 mps 577 mmHg 76%
    12:00 -3°C° 0 mm 1 mps 578 mmHg 78%
    13:00 -2°C° 0 mm 1 mps 578 mmHg 80%
    14:00 -3°C° 0 mm 1 mps 577 mmHg 77%
    15:00 -4°C° 0 mm 1 mps 576 mmHg 73%
    16:00 -6°C° 0 mm 1 mps 576 mmHg 70%
    17:00 -7°C° 0 mm 1 mps 575 mmHg 67%
    18:00 -9°C° 0 mm 2 mps 575 mmHg 64%
    19:00 -10°C° 0 mm 2 mps 575 mmHg 61%
    20:00 -10°C° 0 mm 2 mps 574 mmHg 60%
    21:00 -10°C° 0 mm 2 mps 574 mmHg 59%
    22:00 -13°C° 0 mm 3 mps 574 mmHg 58%
    23:00 -13°C° 0 mm 3 mps 574 mmHg 59%
    Show more